#timestamp,LO_Frequency,Hit 
1504180815.9,286046986.9,N
1504180835.7,286046989.0,N
1504180855.5,286046991.0,N
1504180875.4,286046990.2,N
1504180895.2,286046992.9,N
1504180915.0,286046993.1,N
1504180915.9,286046993.1,N
1504180935.8,286046990.9,N
1504180955.6,286046994.8,N
1504180975.4,286046993.2,N
1504180995.3,286046992.3,N
1504181015.1,286046992.3,N
1504181016.0,286046992.3,N
1504181035.8,286046990.8,P
1504181055.7,286047000.1,N
1504181075.5,286047005.2,N
1504181095.3,286047008.6,N
1504181115.2,286047006.8,N
1504181135.9,286047004.6,N
1504181155.7,286047003.4,N
1504181175.6,286047007.3,N
1504181195.4,286047004.6,N
1504181215.2,286047005.6,N
1504181235.1,286047003.7,N
1504181236.0,286047003.7,N
1504181255.8,286047005.4,N
1504181275.6,286047001.4,N
1504181295.5,286047001.8,N
1504181315.3,286047001.2,N
1504181335.1,286046996.5,N
1504181355.9,286046993.4,N
1504181375.7,286046994.5,N
1504181395.5,286046991.7,N
1504181415.3,286046991.3,N
1504181435.2,286046989.6,N
1504181455.0,286046985.7,N
1504181455.9,286046985.7,N
1504181475.7,286046986.5,N
1504181495.6,286046984.2,N
1504181515.4,286046983.4,N
1504181535.2,286046981.5,N
1504181555.1,286046978.7,N
1504181556.0,286046978.7,N
1504181575.8,286046974.1,N
1504181595.6,286046973.3,N
1504181615.5,286046972.9,N
1504181635.3,286046975.6,N
1504181655.1,286046969.7,N
1504181675.9,286046970.6,N
1504181695.7,286046967.9,N
1504181715.5,286046969.6,N
1504181735.4,286046972.3,N
1504181755.2,286046967.8,N
1504181775.0,286046968.3,N
1504181775.9,286046968.3,N
1504181795.8,286046970.6,N
1504181815.6,286046971.6,N
1504181835.4,286046970.7,N
1504181855.3,286046967.4,P
1504181875.1,286046987.1,N
1504181876.0,286046987.1,N
1504181895.8,286046987.9,N
1504181915.7,286046986.7,N
1504181935.5,286046985.6,N
1504181955.3,286046985.3,N
1504181975.1,286046986.5,N
1504181995.9,286046985.0,N
1504182015.7,286046985.2,N
1504182035.5,286046983.2,N
1504182055.4,286046985.1,N
1504182075.2,286046984.0,P
1504182095.0,286047004.3,P
1504182096.0,286047004.3,N
1504182115.8,286047001.4,N
1504182135.6,286047005.6,N
1504182155.4,286047006.3,N
1504182175.3,286047007.8,N
1504182195.1,286047010.7,N
1504182215.8,286047009.3,N
1504182235.7,286047018.4,N
1504182255.7,286047019.7,N
1504182275.5,286047020.0,N
1504182295.4,286047022.7,N
1504182315.2,286047024.9,N
1504182335.0,286047026.0,N
1504182335.9,286047026.0,N
1504182355.8,286047024.8,N
1504182375.6,286047024.9,N
1504182395.4,286047025.1,N
1504182415.3,286047022.4,N
1504182435.1,286047019.0,N
1504182436.0,286047019.0,N
1504182455.8,286047019.9,N
1504182475.7,286047017.9,N
1504182495.5,286047019.5,N
1504182515.3,286047018.7,N
1504182535.1,286047014.9,N
1504182555.9,286047016.6,N
1504182575.7,286047017.6,N
1504182595.5,286047013.5,N
1504182615.4,286047015.3,N
1504182635.2,286047016.5,N
1504182655.0,286047015.7,N
1504182655.9,286047015.7,N
1504182675.8,286047016.2,N
1504182695.6,286047016.4,P
1504182715.4,286046997.4,N
1504182735.3,286046995.4,N
1504182755.1,286046997.8,N
1504182775.8,286046997.0,N
1504182795.7,286046997.9,N
1504182815.5,286046999.6,N
1504182835.3,286047001.1,N
1504182855.2,286047002.3,N
1504182875.9,286046998.2,N
1504182895.7,286047002.4,N
1504182915.6,286047000.1,N
1504182935.4,286046998.6,N
1504182955.2,286046998.9,N
1504182975.1,286046998.7,N
1504182976.0,286046998.7,N
1504182995.8,286046994.9,N
1504183015.6,286046997.9,N
1504183035.5,286046994.3,N
1504183055.3,286046994.0,N
1504183075.1,286046992.5,N
1504183095.8,286046993.2,N
1504183115.7,286046991.5,N
1504183135.5,286046988.7,N
1504183155.3,286046991.2,N
1504183175.2,286046993.9,N
1504183195.9,286046991.8,N
1504183215.7,286046993.5,N
1504183235.2,286046997.4,N
1504183255.1,286046995.8,N
1504183256.0,286046995.8,N
1504183275.8,286046994.2,N
1504183295.6,286046992.2,N
1504183315.5,286046997.4,N
1504183335.3,286047001.1,N
1504183355.1,286047000.8,N
1504183375.9,286046999.8,N
1504183395.7,286046999.9,N
1504183415.5,286047001.6,N
1504183435.4,286047002.2,N
1504183455.2,286047005.1,N
1504183475.0,286047005.7,N
1504183475.9,286047005.7,N
1504183495.5,286047007.2,N
1504183515.3,286047003.3,N
1504183535.2,286047005.8,N
1504183555.0,286047001.9,N
1504183555.9,286047001.9,N
1504183575.8,286047000.3,N
1504183595.6,286046999.3,N
1504183615.4,286047000.6,N
1504183635.2,286046999.0,N
1504183655.1,286046997.3,N
1504183656.0,286046997.3,N
1504183675.8,286046998.8,N
1504183695.6,286046999.0,N
1504183715.5,286046999.6,N
1504183735.3,286046999.2,N
1504183755.1,286046997.7,N
1504183775.9,286046999.2,N
1504183795.7,286046999.5,N
1504183815.5,286046994.9,N
1504183835.7,286046997.6,N
1504183855.6,286046995.4,N
1504183875.4,286046995.8,N
1504183895.2,286046995.1,N
1504183915.1,286046993.9,N
1504183916.0,286046993.9,N
1504183935.8,286046992.1,N
1504183955.6,286046990.1,N
1504183975.5,286046990.6,N
1504183995.3,286046990.3,N
1504184015.1,286046992.4,N
1504184035.9,286046992.1,N
1504184055.7,286046996.2,N
1504184075.5,286046995.0,N
1504184095.4,286046996.7,N
1504184115.2,286047000.7,N
1504184135.0,286047001.1,N
1504184135.9,286047001.1,N
1504184155.8,286047001.3,N
1504184175.6,286047007.8,N
1504184195.4,286047010.7,N
1504184215.3,286047015.5,P
1504184235.1,286047018.4,N
1504184255.8,286047019.4,N
1504184275.7,286047022.4,N
1504184295.5,286047027.8,P
1504184315.3,286047012.6,N
1504184335.9,286047013.1,N
1504184355.5,286047015.4,N
1504184375.4,286047015.4,N
1504184395.2,286047012.8,N
